[[{"header":{"parameterUnit":"m.s-1","parameterCategory":1,"la1":30.2991,"la2":30.254,"lo1":-89.0895,"lo2":-89.0444,"dy":0.0017,"dx":0.0017,"nx":28,"ny":28,"refTime":"2024-05-01T09:00:00:Z","depth":0,"parameterNumber":2,"parameterNumberName":"U-component_of_WINDS"},"data":[0,0,0,0,0,0,0,0,0,0,0,0,0,0,0,0,0,0,0,0,0,0,0,0,0,0,0,0,0,0,0,0,0,0,0,0,0,0,0,0,0,0,0,0,0,0,0,0,0,0,0,0,0,0,0,0,0,0,-1.3906,-1.3905,0,-1.3862,-1.3862,-1.3861,-1.3801,-1.38,-1.3799,-1.3798,-1.3754,-1.3754,-1.3754,0,0,0,0,0,0,0,0,0,0,0,0,0,-1.3937,-1.3937,-1.3906,-1.3905,-1.3905,-1.3862,-1.3862,-1.3861,-1.3801,-1.38,-1.3799,-1.3798,-1.3754,-1.3754,-1.3754,0,0,0,0,0,0,0,0,0,0,0,0,0,-1.3912,-1.3937,-1.3906,-1.387,-1.3866,-1.3863,-1.3862,-1.3861,-1.3802,-1.38,-1.3798,-1.3797,-1.3754,-1.3754,-1.3754,-1.3782,0,0,-1.3753,-1.3753,0,0,0,0,0,0,0,0,-1.3913,-1.3911,-1.3876,-1.3872,-1.3868,-1.3836,-1.3857,-1.3835,-1.3802,-1.3826,-1.3798,-1.3796,-1.3783,-1.378,-1.3775,-1.378,-1.3778,-1.3753,-1.3752,-1.3752,-1.3752,0,0,0,0,0,0,0,-1.3915,-1.3912,-1.3889,-1.3875,-1.3871,-1.3856,-1.3851,-1.3852,-1.3813,-1.3824,-1.3819,-1.3815,-1.378,-1.3775,-1.3774,-1.3778,-1.3753,-1.3752,-1.3752,-1.3752,-1.3805,-1.3806,0,0,0,0,0,0,-1.3922,-1.3914,-1.389,-1.3887,-1.3887,-1.3857,-1.3851,-1.3848,-1.3813,-1.3807,-1.3816,-1.3812,-1.3777,-1.3774,-1.3772,-1.3803,-1.3752,-1.3752,-1.3752,-1.3803,-1.3805,-1.3807,0,0,0,0,0,0,-1.3923,-1.3921,-1.3892,-1.39,-1.3895,-1.3858,-1.3855,-1.3848,-1.3843,-1.3808,-1.38,-1.3819,-1.3775,-1.3772,-1.378,-1.3801,-1.3752,-1.3752,-1.3801,-1.3804,-1.3806,-1.3867,0,0,0,0,0,0,-1.3924,-1.3921,-1.3932,-1.39,-1.3895,-1.3901,-1.3856,-1.3848,-1.3842,-1.3837,-1.3808,-1.3802,-1.3774,-1.3781,-1.378,-1.38,-1.3751,-1.3799,-1.3803,-1.3805,-1.3863,-1.3871,-1.3878,0,0,0,0,0,-1.3926,-1.3951,-1.3933,-1.393,-1.3907,-1.3902,-1.3899,-1.3867,-1.3844,-1.3854,-1.3832,-1.3803,-1.3799,-1.3782,-1.3781,-1.3801,-1.3798,-1.3802,-1.3805,-1.3859,-1.3869,-1.3878,0,0,0,0,0,0,-1.3986,-1.3946,-1.3925,-1.3941,-1.3925,-1.3892,-1.3904,-1.3878,-1.3869,-1.3864,-1.3824,-1.3818,-1.3832,-1.3817,-1.3799,-1.3827,-1.3794,-1.3797,-1.3836,-1.3845,-1.3853,-1.3856,-1.3751,0,0,0,0,0,-1.4001,-1.4,-1.3965,-1.3982,-1.3976,-1.3941,-1.3938,-1.3915,-1.3897,-1.389,-1.3868,-1.3853,-1.3848,-1.3846,-1.3839,-1.386,-1.3853,-1.3873,-1.3881,-1.3887,-1.3891,-1.3901,-1.391,-1.3819,-1.3819,-1.3819,0,0,-1.4032,-1.401,-1.4012,-1.3994,-1.3979,-1.398,-1.3936,-1.3939,-1.3939,-1.3891,-1.3897,-1.3881,-1.386,-1.3875,-1.3881,-1.3863,-1.3914,-1.3892,-1.3897,-1.3897,-1.3906,-1.3914,-1.3922,-1.3821,-1.3821,-1.382,0,0,-1.4088,-1.4072,-1.4084,-1.407,-1.4049,-1.4026,-1.4029,-1.4,-1.3987,-1.3992,-1.3956,-1.3956,-1.3949,-1.3936,-1.3929,-1.3981,-1.3954,-1.3981,-1.402,-1.4031,-1.4038,-1.4044,-1.4063,-1.4071,-1.3984,-1.3984,-1.3984,0,-1.413,-1.4129,-1.4094,-1.4099,-1.4092,-1.4048,-1.4061,-1.4049,-1.4027,-1.4023,-1.4004,-1.3994,-1.3978,-1.3989,-1.4002,-1.3998,-1.4,-1.3984,-1.404,-1.4046,-1.4051,-1.4069,-1.4076,-1.3988,-1.3987,-1.3987,-1.3986,0,-1.4181,-1.4181,-1.4194,-1.4173,-1.4168,-1.4177,-1.4143,-1.4142,-1.4119,-1.4099,-1.4105,-1.4084,-1.4073,-1.4073,-1.4051,-1.4082,-1.4072,-1.4047,-1.4013,-1.4064,-1.408,-1.4086,-1.3992,-1.3991,-1.399,-1.3989,0,0,-1.4274,-1.4234,-1.424,-1.423,-1.4203,-1.4202,-1.4209,-1.4198,-1.4198,-1.4185,-1.419,-1.4185,-1.4162,-1.4153,-1.4129,-1.4138,-1.4182,-1.4112,-1.4111,-1.4126,-1.4215,-1.4234,-1.4243,-1.4164,-1.4165,-1.4166,-1.4217,0,-1.4326,-1.4335,-1.4304,-1.4322,-1.4322,-1.428,-1.4286,-1.4271,-1.4252,-1.4249,-1.4228,-1.4225,-1.4195,-1.419,-1.4197,-1.4175,-1.4199,-1.4171,-1.4168,-1.4169,-1.4175,-1.4251,-1.4271,-1.432,-1.4223,-1.4224,-1.4225,0,-1.4388,-1.4377,-1.4395,-1.4367,-1.4366,-1.4372,-1.4359,-1.4357,-1.4339,-1.4324,-1.4316,-1.4288,-1.4293,-1.4261,-1.4268,-1.4249,-1.4246,-1.4235,-1.4236,-1.4235,-1.42,-1.4252,-1.4335,-1.4343,-1.4234,-1.4233,-1.4233,0,-1.4454,-1.4444,-1.4454,-1.4447,-1.4414,-1.442,-1.4407,-1.4387,-1.4382,-1.4372,-1.4368,-1.4359,-1.4353,-1.4346,-1.4317,-1.4296,-1.4327,-1.4293,-1.4316,-1.4317,-1.4324,-1.4324,-1.4408,-1.4322,-1.4322,-1.4322,-1.4322,0,-1.4516,-1.4528,-1.4483,-1.4489,-1.4502,-1.4466,-1.448,-1.4463,-1.4445,-1.4447,-1.4411,-1.4414,-1.4374,-1.4373,-1.4349,-1.4359,-1.4357,-1.4345,-1.4339,-1.4349,-1.435,-1.4346,-1.4342,-1.4324,-1.4323,-1.4323,-1.4323,0,-1.4592,-1.4563,-1.457,-1.4539,-1.4532,-1.4543,-1.4516,-1.4521,-1.4499,-1.4502,-1.4501,-1.4468,-1.4464,-1.4434,-1.4423,-1.4408,-1.4426,-1.4413,-1.4432,-1.4428,-1.4453,-1.4451,-1.4538,-1.4548,-1.4455,-1.4456,-1.4457,0,-1.4634,-1.4642,-1.4612,-1.4611,-1.4599,-1.4598,-1.4593,-1.4558,-1.4555,-1.4534,-1.4541,-1.4535,-1.4528,-1.4524,-1.4499,-1.4491,-1.4477,-1.4508,-1.4476,-1.4486,-1.4478,-1.4478,-1.4479,-1.4515,-1.4517,-1.4517,-1.4518,0,-1.471,-1.4695,-1.4689,-1.4679,-1.4674,-1.4664,-1.4652,-1.4653,-1.4615,-1.4613,-1.4609,-1.4603,-1.4592,-1.4586,-1.4574,-1.4561,-1.4534,-1.4529,-1.4534,-1.4544,-1.4555,-1.4549,-1.4451,-1.4527,-1.4526,-1.4525,-1.4525,-1.4525,-1.477,-1.4776,-1.4756,-1.4751,-1.4738,-1.4728,-1.473,-1.471,-1.4705,-1.4694,-1.4673,-1.4672,-1.4654,-1.4635,-1.4624,-1.4623,-1.4606,-1.4613,-1.4615,-1.4618,-1.4623,-1.4555,-1.462,-1.462,-1.462,-1.4619,-1.4619,0,-1.4845,-1.483,-1.4826,-1.481,-1.4807,-1.4781,-1.4766,-1.4765,-1.4764,-1.4749,-1.4743,-1.4738,-1.4733,-1.4707,-1.4699,-1.4703,-1.469,-1.4702,-1.4701,-1.4699,-1.4638,-1.4634,-1.4712,-1.4712,-1.4712,-1.4712,-1.4712,-1.4712,-1.4884,-1.4892,-1.4875,-1.4877,-1.4862,-1.486,-1.4854,-1.4845,-1.4833,-1.4829,-1.4824,-1.4807,-1.4789,-1.4778,-1.4772,-1.4765,-1.4763,-1.478,-1.4768,-1.4712,-1.4703,-1.4694,-1.4691,-1.4779,-1.478,-1.4829,-1.483,-1.483]},{"header":{"parameterUnit":"m.s-1","parameterCategory":1,"la1":30.2991,"la2":30.254,"lo1":-89.0895,"lo2":-89.0444,"dy":0.0017,"dx":0.0017,"nx":28,"ny":28,"refTime":"2024-05-01T09:00:00:Z","depth":0,"parameterNumber":3,"parameterNumberName":"V-component_of_WINDS"},"data":[0,0,0,0,0,0,0,0,0,0,0,0,0,0,0,0,0,0,0,0,0,0,0,0,0,0,0,0,0,0,0,0,0,0,0,0,0,0,0,0,0,0,0,0,0,0,0,0,0,0,0,0,0,0,0,0,0,0,2.6775,2.6775,0,2.6771,2.6771,2.677,2.6737,2.6736,2.6735,2.6735,2.6731,2.6731,2.6732,0,0,0,0,0,0,0,0,0,0,0,0,0,2.6755,2.6755,2.6775,2.6775,2.6775,2.6771,2.6771,2.677,2.6737,2.6736,2.6735,2.6734,2.673,2.6731,2.6732,0,0,0,0,0,0,0,0,0,0,0,0,0,2.6758,2.6755,2.6775,2.6758,2.6756,2.6771,2.6771,2.677,2.6737,2.6736,2.6735,2.6734,2.673,2.6731,2.6732,2.6763,0,0,2.6735,2.6735,0,0,0,0,0,0,0,0,2.6758,2.6759,2.676,2.6759,2.6757,2.6753,2.6762,2.6768,2.6738,2.6745,2.6735,2.6733,2.6739,2.6739,2.6741,2.6763,2.6762,2.6735,2.6736,2.6736,2.6736,0,0,0,0,0,0,0,2.6758,2.6759,2.6773,2.676,2.6758,2.675,2.6749,2.6763,2.6749,2.6744,2.6741,2.6741,2.6738,2.674,2.6741,2.6762,2.6735,2.6736,2.6737,2.6737,2.6809,2.681,0,0,0,0,0,0,2.676,2.6759,2.6773,2.6773,2.6755,2.6752,2.6751,2.6756,2.6749,2.6746,2.6742,2.674,2.6739,2.674,2.6741,2.6776,2.6736,2.6737,2.6738,2.6807,2.6809,2.681,0,0,0,0,0,0,2.676,2.6762,2.6773,2.6765,2.6766,2.6753,2.6759,2.6756,2.6758,2.6747,2.6745,2.6747,2.6738,2.6739,2.6757,2.6775,2.6738,2.6738,2.6806,2.6808,2.681,2.6847,0,0,0,0,0,0,2.6759,2.6762,2.6773,2.6766,2.6767,2.6791,2.676,2.6757,2.676,2.6757,2.6751,2.6749,2.6737,2.6756,2.6758,2.6776,2.6739,2.6804,2.6807,2.6809,2.6844,2.685,2.6855,0,0,0,0,0,2.6759,2.6784,2.6774,2.6776,2.6781,2.6792,2.6792,2.6778,2.6762,2.6773,2.6766,2.6749,2.6773,2.6758,2.6761,2.6779,2.6803,2.6806,2.6809,2.6842,2.6849,2.6855,0,0,0,0,0,0,2.6794,2.6783,2.6771,2.6795,2.6795,2.6786,2.68,2.6786,2.679,2.6787,2.6769,2.6768,2.6789,2.6786,2.6769,2.6808,2.6785,2.6789,2.6809,2.6816,2.6822,2.6822,2.674,0,0,0,0,0,2.6804,2.6814,2.6804,2.6826,2.6826,2.6813,2.6817,2.6806,2.6805,2.6805,2.6799,2.6798,2.6805,2.6811,2.6817,2.6844,2.6842,2.6857,2.6863,2.6867,2.6871,2.6885,2.6891,2.682,2.682,2.682,0,0,2.6826,2.6821,2.6828,2.6833,2.6831,2.6841,2.6813,2.6825,2.6833,2.6806,2.6823,2.6819,2.6817,2.684,2.685,2.6838,2.689,2.6871,2.6875,2.6876,2.6888,2.6895,2.6901,2.6822,2.6822,2.6821,0,0,2.6871,2.6869,2.6886,2.6885,2.6883,2.6874,2.6879,2.6872,2.6868,2.6885,2.6865,2.6874,2.6887,2.6887,2.6888,2.6933,2.6918,2.6936,2.6964,2.6978,2.6984,2.6989,2.7005,2.7011,2.6939,2.6939,2.6939,0,2.6899,2.6913,2.6898,2.6911,2.6913,2.689,2.6908,2.6908,2.6907,2.691,2.6896,2.6912,2.6909,2.6932,2.6943,2.6945,2.6949,2.6936,2.6984,2.6989,2.6993,2.7008,2.7014,2.6941,2.6941,2.6941,2.694,0,2.6947,2.6958,2.6973,2.6973,2.6977,2.6993,2.6979,2.6985,2.6974,2.6967,2.6984,2.698,2.6985,2.6989,2.6978,2.701,2.7003,2.6987,2.6964,2.7002,2.7016,2.7022,2.6944,2.6943,2.6943,2.6942,0,0,2.7015,2.7006,2.7011,2.7011,2.7007,2.7015,2.703,2.7034,2.704,2.704,2.7052,2.7064,2.7049,2.7051,2.704,2.7052,2.7088,2.7035,2.7034,2.7045,2.7123,2.7134,2.7141,2.7078,2.7079,2.708,2.7123,0,2.7058,2.7082,2.7068,2.7095,2.7104,2.7082,2.7095,2.7094,2.7087,2.7095,2.7087,2.7096,2.7076,2.7077,2.7088,2.7081,2.7103,2.7078,2.7089,2.7089,2.709,2.7148,2.7161,2.7202,2.7128,2.7129,2.713,0,2.7112,2.7114,2.7142,2.7136,2.7139,2.7151,2.7154,2.7161,2.7159,2.7154,2.7156,2.7142,2.7156,2.7133,2.7152,2.7135,2.7138,2.7136,2.7137,2.7137,2.7112,2.715,2.7214,2.7221,2.7138,2.7137,2.7137,0,2.7158,2.7169,2.7186,2.7187,2.718,2.7189,2.7186,2.7183,2.7187,2.719,2.7192,2.7196,2.7199,2.7203,2.719,2.7174,2.7211,2.7187,2.7207,2.7207,2.7215,2.7215,2.7281,2.7218,2.7218,2.7218,2.7218,0,2.7208,2.7225,2.7207,2.7218,2.7237,2.7221,2.724,2.7235,2.7233,2.7243,2.7224,2.7233,2.7216,2.7224,2.7214,2.7232,2.7233,2.7229,2.7226,2.7231,2.7231,2.7233,2.723,2.7219,2.7219,2.7219,2.7218,0,2.7263,2.7251,2.7269,2.7261,2.7259,2.7274,2.7267,2.7277,2.7269,2.7281,2.7283,2.7272,2.728,2.7268,2.7275,2.7268,2.7292,2.7285,2.7293,2.7291,2.7311,2.731,2.738,2.7389,2.7321,2.7321,2.7322,0,2.7295,2.7308,2.7301,2.7306,2.7305,2.7313,2.7317,2.7302,2.7306,2.7305,2.7315,2.7322,2.7326,2.734,2.7332,2.7338,2.7331,2.7355,2.7331,2.7335,2.7331,2.733,2.7331,2.736,2.7361,2.7361,2.7362,0,2.7354,2.7348,2.7353,2.7357,2.7362,2.7364,2.7365,2.737,2.7354,2.736,2.7368,2.7372,2.7379,2.7386,2.7389,2.7386,2.7372,2.737,2.7374,2.7379,2.7383,2.7381,2.7306,2.7368,2.7367,2.7367,2.7367,2.7366,2.7399,2.7409,2.7406,2.7413,2.7412,2.7413,2.7422,2.7416,2.7422,2.7426,2.7417,2.7427,2.7425,2.7428,2.7427,2.7435,2.7425,2.7432,2.7433,2.7435,2.7439,2.7382,2.7436,2.7436,2.7435,2.7435,2.7435,0,2.7457,2.7453,2.746,2.7462,2.7467,2.7453,2.7453,2.7459,2.7468,2.7467,2.7472,2.7481,2.7488,2.748,2.7486,2.7493,2.7487,2.7495,2.7495,2.7494,2.7448,2.7443,2.7501,2.7501,2.7501,2.7501,2.7501,2.7501,2.7487,2.7504,2.7498,2.7514,2.751,2.752,2.7522,2.7523,2.7522,2.7533,2.7539,2.7534,2.753,2.7535,2.754,2.7538,2.7541,2.7552,2.7547,2.7504,2.7498,2.7491,2.7487,2.7552,2.7553,2.7593,2.7593,2.7593]}]]